This demonstration page uses our WeatherBlox Daily Observations layout. Learn more.

Hourly Observations for April 15, 2018

Temp ( °F °C ) Dew Point ( °F °C ) Humidity (%) Winds ( mph kmh ) Pressure ( in mb ) Visibility ( mi km ) Precip ( " mm )
12:15 am 00:15 Cloudy 24 -4.5 19 -7 83 83 N 20 31 30.27 1025 10 16.0934 0 0
12:35 am 00:35 Cloudy 24 -4.4 19 -7 82 82 N 17 28 30.27 1025 10 16.0934 0 0
12:55 am 00:55 Cloudy 24 -4.5 19 -7 83 83 N 17 28 30.27 1025 10 16.0934 0 0
1:15 am 01:15 Cloudy 24 -4.5 20 -6.8 84 84 N 16 26 30.24 1024 10 16.0934 0 0
1:35 am 01:35 Cloudy 24 -4.5 19 -7 83 83 NNW 15 24 30.24 1024 10 16.0934 0 0
1:55 am 01:55 Cloudy 24 -4.6 19 -7 84 84 NNW 18 30 30.27 1025 10 16.0934 0 0
2:15 am 02:15 Cloudy 23 -4.8 19 -7.3 83 83 NNW 15 24 30.24 1024 10 16.0934 0 0
2:35 am 02:35 Cloudy 23 -5 19 -7.5 83 83 N 20 31 30.24 1024 10 16.0934 0 0
2:55 am 02:55 Cloudy 23 -5 18 -7.6 82 82 N 17 28 30.24 1024 10 16.0934 0 0
3:15 am 03:15 Cloudy 23 -5.1 18 -7.7 82 82 N 18 30 30.24 1024 10 16.0934 0 0
3:35 am 03:35 Cloudy 22 -5.6 18 -7.9 84 84 NNW 10 17 30.27 1025 10 16.0934 0 0
3:55 am 03:55 Mostly Cloudy 21 -6.2 17 -8.3 85 85 NNW 12 19 30.27 1025 10 16.0934 0 0
4:15 am 04:15 Partly Cloudy 20 -6.8 16 -8.7 87 87 NW 12 19 30.27 1025 10 16.0934 0 0
4:35 am 04:35 Clear 18 -7.6 16 -9.1 89 89 NW 10 17 30.3 1026 10 16.0934 0 0
4:55 am 04:55 Clear 18 -7.7 15 -9.2 89 89 NW 14 22 30.3 1026 10 16.0934 0 0
5:15 am 05:15 Clear 18 -7.7 15 -9.3 88 88 NW 12 19 30.3 1026 10 16.0934 0 0
5:35 am 05:35 Clear 17 -8.1 14 -9.8 88 88 NW 14 22 30.3 1026 10 16.0934 0 0
5:55 am 05:55 Clear 17 -8.3 14 -10 88 88 NW 14 22 30.33 1027 10 16.0934 0 0
6:15 am 06:15 Clear 18 -8 14 -9.8 87 87 NW 16 26 30.3 1026 10 16.0934 0 0
6:35 am 06:35 Clear 17 -8.1 14 -10 86 86 NW 15 24 30.3 1026 10 16.0934 0 0
6:55 am 06:55 Clear 17 -8.2 14 -10.1 86 86 NW 15 24 30.3 1026 10 16.0934 0 0
7:15 am 07:15 Sunny 17 -8.2 14 -10.2 86 86 NW 12 19 30.3 1026 10 16.0934 0 0
7:35 am 07:35 Sunny 17 -8.1 14 -10 86 86 NW 16 26 30.3 1026 10 16.0934 0 0
7:55 am 07:55 Sunny 18 -7.7 15 -9.7 86 86 NW 15 24 30.3 1026 10 16.0934 0 0
8:15 am 08:15 Sunny 19 -7.3 15 -9.5 84 84 NW 16 26 30.3 1026 10 16.0934 0 0
8:35 am 08:35 Sunny 19 -7 15 -9.2 85 85 NNW 16 26 30.33 1027 10 16.0934 0 0
8:55 am 08:55 Mostly Cloudy 20 -6.6 16 -9.1 83 83 NNW 14 22 30.3 1026 10 16.0934 0 0
9:15 am 09:15 Partly Cloudy 21 -6.1 16 -8.7 82 82 N 16 26 30.33 1027 10 16.0934 0 0
9:35 am 09:35 Sunny 22 -5.6 17 -8.2 82 82 N 15 24 30.33 1027 10 16.0934 0 0
9:55 am 09:55 Sunny 24 -4.6 19 -7.5 80 80 N 17 28 30.3 1026 10 16.0934 0 0
10:15 am 10:15 Sunny 25 -4 19 -7.5 77 77 N 15 24 30.3 1026 10 16.0934 0 0
10:35 am 10:35 Sunny 25 -3.7 18 -7.6 75 75 N 20 31 30.3 1026 10 16.0934 0 0
10:55 am 10:55 Sunny 26 -3.2 19 -7.5 72 72 N 16 26 30.3 1026 10 16.0934 0 0
11:15 am 11:15 Sunny 27 -2.6 19 -7.3 70 70 N 22 35 30.3 1026 10 16.0934 0 0
11:35 am 11:35 Sunny 28 -2.1 19 -7.2 68 68 NNW 20 31 30.3 1026 10 16.0934 0 0
11:55 am 11:55 Sunny 29 -1.9 20 -6.9 69 69 NNW 20 31 30.27 1025 10 16.0934 0 0
12:15 pm 12:15 Sunny 29 -1.5 19 -7.2 66 66 N 17 28 30.27 1025 10 16.0934 0 0
12:35 pm 12:35 Sunny 30 -0.9 21 -6.2 68 68 NNW 18 30 30.27 1025 10 16.0934 0 0
12:55 pm 12:55 Sunny 31 -0.7 21 -6.3 66 66 N 18 30 30.27 1025 10 16.0934 0 0
1:15 pm 13:15 Sunny 32 -0.2 22 -5.5 68 68 N 17 28 30.27 1025 10 16.0934 0 0
1:35 pm 13:35 Sunny 32 0 23 -5.2 68 68 NNW 17 28 30.27 1025 10 16.0934 0 0
1:55 pm 13:55 Sunny 33 0.3 23 -5.1 67 67 N 15 24 30.27 1025 10 16.0934 0 0
2:15 pm 14:15 Sunny 33 0.8 23 -4.8 67 67 N 18 30 30.27 1025 10 16.0934 0 0
2:35 pm 14:35 Sunny 34 1 24 -4.2 69 69 N 14 22 30.21 1023 10 16.0934 0 0
2:55 pm 14:55 Sunny 34 1.2 24 -4.3 67 67 N 15 24 30.21 1023 10 16.0934 0 0
3:15 pm 15:15 Sunny 34 1.1 27 -2.7 76 76 N 18 30 30.21 1023 10 16.0934 0 0
3:35 pm 15:35 Sunny 35 1.5 25 -3.8 68 68 N 18 30 30.21 1023 10 16.0934 0 0
3:55 pm 15:55 Sunny 36 2 25 -4 65 65 N 18 30 30.21 1023 10 16.0934 0 0
4:15 pm 16:15 Sunny 36 2.1 25 -4 64 64 NNW 17 28 30.21 1023 10 16.0934 0 0
4:35 pm 16:35 Partly Cloudy 36 2.2 25 -3.9 64 64 NNW 16 26 30.21 1023 10 16.0934 0 0
4:55 pm 16:55 Partly Cloudy 36 2.4 26 -3.6 65 65 NNW 10 17 30.21 1023 10 16.0934 0 0
5:15 pm 17:15 Sunny 37 2.6 25 -3.7 64 64 NNW 14 22 30.21 1023 10 16.0934 0 0
5:35 pm 17:35 Partly Cloudy 37 2.7 26 -3.6 64 64 N 13 20 30.21 1023 10 16.0934 0 0
5:55 pm 17:55 Partly Cloudy 36 2.3 25 -4.1 63 63 N 15 24 30.21 1023 10 16.0934 0 0
6:15 pm 18:15 Sunny 36 2 25 -3.9 65 65 N 14 22 30.21 1023 10 16.0934 0 0
6:35 pm 18:35 Sunny 35 1.7 25 -4 66 66 N 12 19 30.21 1023 10 16.0934 0 0
6:55 pm 18:55 Sunny 35 1.6 25 -4 67 67 N 10 17 30.21 1023 10 16.0934 0 0
7:15 pm 19:15 Sunny 34 1.2 25 -4.1 68 68 N 14 22 30.21 1023 10 16.0934 0 0
7:35 pm 19:35 Sunny 34 0.9 25 -4 70 70 N 10 17 30.21 1023 10 16.0934 0 0
7:55 pm 19:55 Sunny 32 0.2 24 -4.2 73 73 N 9 15 30.24 1024 10 16.0934 0 0
8:15 pm 20:15 Sunny 31 -0.4 24 -4.5 74 74 N 6 9 30.24 1024 10 16.0934 0 0
8:35 pm 20:35 Clear 30 -1.3 24 -4.5 79 79 N 6 9 30.24 1024 10 16.0934 0 0
8:55 pm 20:55 Clear 27 -2.6 23 -4.8 85 85 N 8 13 30.27 1025 10 16.0934 0 0
9:15 pm 21:15 Clear 27 -2.6 24 -4.5 87 87 N 9 15 30.27 1025 10 16.0934 0 0
9:35 pm 21:35 Clear 26 -3.3 23 -5 88 88 N 7 11 30.3 1026 10 16.0934 0 0
9:55 pm 21:55 Clear 25 -3.9 22 -5.3 90 90 N 9 15 30.3 1026 10 16.0934 0 0
10:15 pm 22:15 Clear 25 -4 22 -5.3 91 91 NNE 6 9 30.3 1026 10 16.0934 0 0
10:35 pm 22:35 Clear 24 -4.3 22 -5.4 92 92 NNE 9 15 30.3 1026 10 16.0934 0 0
10:55 pm 22:55 Clear 25 -4.1 23 -5.2 92 92 N 6 9 30.3 1026 10 16.0934 0 0
11:15 pm 23:15 Clear 24 -4.3 22 -5.3 93 93 N 5 7 30.3 1026 10 16.0934 0 0
11:35 pm 23:35 Clear 23 -5.2 21 -6.2 93 93 N 3 6 30.36 1028 10 16.0934 0 0
11:55 pm 23:55 Clear 22 -5.3 22 -5.7 97 97 N 5 7 30.36 1028 10 16.0934 0 0

Powered by AerisWeather